{"data":{"norad_id":54160,"epoch":"2026-09-20T05:18:44.595072Z","epoch_age_seconds":113382,"freshness":"FRESH","line1":"1 54160U 22141D   26263.22134948  .00000310  00000+0  21764-4 0  9995","line2":"2 54160  53.1598 164.1395 0001443  97.7837 262.3329 15.31703309215873","mean_motion":15.31703309,"eccentricity":0.0001443,"inclination_deg":53.1598,"raan_deg":164.1395,"arg_perigee_deg":97.7837,"mean_anomaly_deg":262.3329,"bstar":2.1764e-5,"rev_number":21587,"period_min":94.012984860634,"perigee_km":469.74183975955,"apogee_km":471.71842281364,"semimajor_km":6848.8671312866,"source":"CELESTRAK","updated_at":"2026-09-21T09:00:33.087643Z"}}